Total_Precipitation_Accumulation
0.23 0.25 0.23 0.19 0.13 0.21 0.31 0.36 0.35 0.35 0.29 0.23 0.18 0.12 0.10 0.15 0.19 0.21 0.25 0.19 0.14 0.20 0.25 0.28 0.23 0.19 0.18 0.17 0.17 0.18 0.17 0.17 0.15 0.13 0.14 0.12 0.10 0.13 0.19 0.25 0.29 0.30 0.30
0.49 0.50 0.43 0.37 0.30 0.33 0.36 0.47 0.47 0.51 0.41 0.39 0.22 0.17 0.19 0.17 0.17 0.19 0.18 0.32 0.32 0.17 0.16 0.19 0.22 0.22 0.19 0.16 0.14 0.14 0.13 0.12 0.10 0.08 0.10 0.08 0.05 0.06 0.10 0.18 0.23 0.22 0.17
0.85 0.81 0.65 0.46 0.47 0.62 0.69 0.60 0.53 0.64 0.42 0.38 0.34 0.42 0.44 0.34 0.25 0.23 0.20 0.24 0.28 0.17 0.12 0.11 0.17 0.21 0.22 0.21 0.20 0.19 0.15 0.10 0.06 0.05 0.05 0.04 0.04 0.04 0.03 0.07 0.13 0.13 0.10
0.82 0.82 0.58 0.36 0.49 0.74 0.82 0.75 0.71 0.70 0.59 0.59 0.60 0.65 0.64 0.51 0.34 0.27 0.19 0.15 0.14 0.08 0.11 0.19 0.17 0.17 0.24 0.29 0.33 0.35 0.29 0.19 0.10 0.05 0.03 0.03 0.04 0.02 0.01 0.02 0.06 0.07 0.05
0.49 0.55 0.34 0.28 0.47 0.64 0.68 0.67 0.70 0.77 0.66 0.69 0.75 0.69 0.55 0.42 0.30 0.23 0.18 0.13 0.12 0.09 0.06 0.15 0.11 0.15 0.26 0.37 0.44 0.48 0.44 0.35 0.25 0.15 0.07 0.04 0.03 0.02 0.01 0.00 0.02 0.04 0.05
0.24 0.36 0.30 0.27 0.45 0.54 0.51 0.68 0.75 0.82 0.69 0.64 0.66 0.45 0.33 0.22 0.20 0.14 0.11 0.10 0.07 0.05 0.04 0.05 0.14 0.16 0.27 0.37 0.44 0.49 0.55 0.45 0.31 0.23 0.17 0.11 0.08 0.05 0.03 0.01 0.01 0.03 0.04
0.19 0.33 0.32 0.32 0.39 0.43 0.41 0.56 0.67 0.68 0.51 0.71 0.79 0.37 0.17 0.10 0.10 0.08 0.06 0.05 0.05 0.05 0.07 0.07 0.09 0.13 0.29 0.30 0.37 0.46 0.61 0.55 0.35 0.25 0.22 0.19 0.16 0.11 0.06 0.04 0.02 0.02 0.01
0.18 0.24 0.25 0.26 0.30 0.34 0.34 0.39 0.48 0.52 0.44 0.70 0.79 0.64 0.33 0.16 0.10 0.06 0.08 0.08 0.08 0.09 0.11 0.13 0.15 0.20 0.25 0.41 0.40 0.32 0.40 0.53 0.48 0.37 0.33 0.25 0.21 0.18 0.14 0.11 0.05 0.04 0.02
0.15 0.16 0.17 0.21 0.26 0.28 0.31 0.36 0.47 0.58 0.49 0.54 0.74 0.83 0.58 0.29 0.23 0.17 0.19 0.23 0.23 0.25 0.24 0.28 0.34 0.38 0.37 0.42 0.44 0.45 0.37 0.40 0.51 0.62 0.59 0.44 0.30 0.25 0.25 0.26 0.20 0.11 0.06
0.08 0.09 0.12 0.23 0.30 0.35 0.40 0.39 0.44 0.52 0.54 0.47 0.54 0.67 0.70 0.66 0.54 0.30 0.21 0.23 0.28 0.29 0.28 0.28 0.29 0.35 0.41 0.43 0.57 0.66 0.62 0.47 0.42 0.58 0.67 0.65 0.53 0.36 0.27 0.30 0.41 0.37 0.23
0.05 0.05 0.06 0.11 0.23 0.31 0.36 0.37 0.39 0.44 0.50 0.48 0.47 0.51 0.61 0.71 0.67 0.51 0.28 0.21 0.27 0.28 0.30 0.31 0.30 0.32 0.38 0.49 0.63 0.65 0.71 0.60 0.50 0.49 0.55 0.58 0.54 0.46 0.38 0.43 0.66 0.89 0.80
0.05 0.04 0.05 0.08 0.13 0.15 0.19 0.26 0.30 0.34 0.38 0.41 0.44 0.47 0.51 0.53 0.57 0.64 0.51 0.39 0.35 0.36 0.44 0.48 0.49 0.47 0.45 0.52 0.52 0.55 0.47 0.48 0.44 0.40 0.34 0.33 0.36 0.40 0.48 0.65 0.92 1.16 1.26
0.08 0.08 0.09 0.13 0.18 0.19 0.19 0.22 0.27 0.30 0.35 0.39 0.41 0.44 0.48 0.51 0.59 0.67 0.63 0.52 0.48 0.54 0.63 0.66 0.58 0.56 0.49 0.58 0.54 0.41 0.30 0.27 0.24 0.22 0.19 0.20 0.25 0.33 0.42 0.50 0.61 0.76 0.90
0.10 0.13 0.18 0.19 0.18 0.21 0.24 0.31 0.36 0.38 0.40 0.41 0.39 0.47 0.51 0.51 0.59 0.65 0.68 0.67 0.61 0.67 0.77 0.66 0.45 0.41 0.41 0.40 0.32 0.27 0.35 0.26 0.17 0.12 0.09 0.08 0.09 0.11 0.17 0.28 0.40 0.49 0.57
0.09 0.09 0.14 0.22 0.22 0.23 0.28 0.36 0.40 0.41 0.44 0.49 0.51 0.55 0.58 0.57 0.58 0.61 0.68 0.71 0.69 0.68 0.75 0.64 0.45 0.38 0.33 0.27 0.23 0.28 0.35 0.35 0.22 0.10 0.06 0.05 0.06 0.07 0.08 0.10 0.14 0.21 0.31
0.13 0.12 0.14 0.19 0.20 0.21 0.27 0.38 0.46 0.49 0.55 0.61 0.58 0.58 0.64 0.64 0.62 0.64 0.67 0.69 0.73 0.77 0.72 0.54 0.41 0.33 0.30 0.23 0.19 0.21 0.23 0.26 0.18 0.10 0.05 0.04 0.04 0.05 0.07 0.08 0.09 0.10 0.12
0.15 0.13 0.13 0.13 0.11 0.11 0.16 0.29 0.49 0.58 0.65 0.66 0.65 0.66 0.65 0.66 0.62 0.56 0.60 0.64 0.67 0.70 0.57 0.40 0.38 0.35 0.32 0.27 0.23 0.20 0.15 0.15 0.16 0.13 0.06 0.05 0.04 0.04 0.06 0.07 0.07 0.07 0.08
0.16 0.14 0.12 0.11 0.09 0.10 0.15 0.26 0.41 0.54 0.65 0.73 0.71 0.68 0.57 0.51 0.51 0.50 0.53 0.56 0.55 0.56 0.45 0.33 0.28 0.26 0.27 0.27 0.25 0.20 0.14 0.10 0.12 0.16 0.09 0.06 0.05 0.06 0.08 0.07 0.05 0.05 0.07
0.21 0.18 0.15 0.14 0.18 0.23 0.29 0.35 0.39 0.48 0.58 0.63 0.61 0.54 0.45 0.43 0.43 0.45 0.44 0.45 0.42 0.40 0.35 0.25 0.20 0.19 0.21 0.19 0.17 0.16 0.14 0.15 0.15 0.14 0.10 0.09 0.09 0.10 0.12 0.10 0.06 0.06 0.08
0.19 0.17 0.17 0.20 0.26 0.33 0.36 0.35 0.35 0.39 0.41 0.45 0.44 0.38 0.33 0.31 0.31 0.32 0.32 0.29 0.28 0.26 0.22 0.17 0.13 0.12 0.13 0.15 0.12 0.10 0.11 0.13 0.17 0.15 0.15 0.19 0.23 0.21 0.19 0.16 0.10 0.07 0.07
0.10 0.13 0.17 0.21 0.26 0.30 0.30 0.32 0.32 0.28 0.30 0.29 0.24 0.22 0.18 0.18 0.21 0.22 0.20 0.17 0.17 0.18 0.16 0.15 0.13 0.12 0.12 0.14 0.13 0.10 0.10 0.13 0.16 0.17 0.19 0.25 0.28 0.26 0.23 0.20 0.15 0.09 0.05
0.06 0.10 0.13 0.16 0.18 0.19 0.23 0.23 0.21 0.17 0.16 0.17 0.16 0.13 0.10 0.10 0.11 0.14 0.14 0.12 0.12 0.13 0.15 0.16 0.14 0.14 0.14 0.14 0.12 0.10 0.09 0.10 0.10 0.17 0.31 0.33 0.26 0.28 0.46 0.47 0.30 0.12 0.04
0.06 0.10 0.12 0.12 0.14 0.16 0.12 0.09 0.08 0.09 0.11 0.13 0.13 0.12 0.08 0.06 0.06 0.06 0.07 0.06 0.07 0.08 0.11 0.13 0.13 0.12 0.10 0.10 0.08 0.09 0.13 0.13 0.10 0.08 0.11 0.11 0.09 0.18 0.49 0.67 0.40 0.16 0.09
0.09 0.12 0.13 0.13 0.15 0.16 0.11 0.07 0.05 0.05 0.09 0.10 0.09 0.09 0.08 0.07 0.06 0.04 0.04 0.05 0.05 0.05 0.07 0.09 0.09 0.08 0.06 0.05 0.05 0.07 0.11 0.12 0.13 0.08 0.05 0.06 0.07 0.11 0.17 0.27 0.29 0.16 0.09
0.16 0.16 0.16 0.16 0.17 0.18 0.13 0.08 0.06 0.07 0.09 0.09 0.07 0.06 0.06 0.05 0.03 0.03 0.04 0.04 0.04 0.04 0.06 0.07 0.06 0.05 0.03 0.02 0.01 0.02 0.03 0.04 0.06 0.07 0.05 0.08 0.09 0.10 0.11 0.12 0.18 0.22 0.16
0.25 0.25 0.23 0.20 0.21 0.24 0.19 0.12 0.10 0.11 0.13 0.09 0.07 0.04 0.03 0.03 0.01 0.01 0.04 0.03 0.02 0.02 0.02 0.03 0.02 0.02 0.01 0.00 0.00 0.01 0.03 0.03 0.03 0.04 0.03 0.06 0.09 0.09 0.10 0.10 0.09 0.14 0.21